This demonstration page uses our WeatherBlox Daily Observations layout. Learn more.

Left ArrowRight Arrow

Hourly Observations for January 15, 2015

Temp ( °F °C ) Dew Point ( °F °C ) Humidity (%) Winds ( mph kmh ) Pressure ( in mb ) Visibility ( mi km ) Precip ( " mm )
12:52 am 00:52 Mostly Clear 21 -6.1 18 -7.8 88 88 SSE 9 15 30.16 1021 10 16 0.00 0.00
1:52 am 01:52 Mostly Cloudy 24 -4.4 20 -6.7 84 84 SSE 8 13 30.13 1020 10 16 0.00 0.00
2:52 am 02:52 Partly Cloudy 21 -6.1 18 -7.8 88 88 SE 8 13 30.14 1021 10 16 0.00 0.00
3:52 am 03:52 Partly Cloudy 21 -6.1 18 -7.8 88 88 SE 8 13 30.12 1020 10 16 0.00 0.00
4:52 am 04:52 Mostly Clear 21 -6.1 17 -8.3 85 85 SE 7 11 30.11 1020 10 16 0.00 0.00
5:52 am 05:52 Clear 21 -6.1 18 -7.8 88 88 ESE 5 7 30.12 1020 10 16 0.00 0.00
6:52 am 06:52 Clear 21 -6.1 17 -8.3 85 85 Calm 30.13 1020 10 16 0.00 0.00
7:52 am 07:52 Sunny 23 -5 17 -8.3 78 78 Calm 30.13 1020 10 16 0.00 0.00
8:52 am 08:52 Sunny 27 -2.8 20 -6.7 75 75 WNW 5 7 30.16 1021 10 16 0.00 0.00
9:52 am 09:52 Sunny 30 -1.1 23 -5 75 75 Calm 30.17 1022 10 16 0.00 0.00
10:52 am 10:52 Sunny 38 3.3 26 -3.3 62 62 NNW 12 19 30.19 1022 10 16 0.00 0.00
11:52 am 11:52 Sunny 40 4.4 26 -3.3 58 58 WNW 14 22 30.18 1022 10 16 0.00 0.00
12:52 pm 12:52 Sunny 42 5.6 27 -2.8 55 55 WNW 12 19 30.17 1022 10 16 0.00 0.00
1:52 pm 13:52 Sunny 45 7.2 29 -1.7 54 54 NW 13 20 30.15 1021 10 16 0.00 0.00
2:52 pm 14:52 Sunny 45 7.2 29 -1.7 54 54 WNW 15 24 30.16 1022 10 16 0.00 0.00
3:52 pm 15:52 Sunny 45 7.2 29 -1.7 54 54 NW 13 20 30.18 1022 10 16 0.00 0.00
4:52 pm 16:52 Sunny 41 5 29 -1.7 62 62 WNW 10 17 30.19 1022 10 16 0.00 0.00
5:52 pm 17:52 Clear 39 3.9 28 -2.2 65 65 W 5 7 30.21 1023 10 16 0.00 0.00
6:52 pm 18:52 Clear 33 0.6 26 -3.3 75 75 NW 7 11 30.22 1023 10 16 0.00 0.00
7:52 pm 19:52 Clear 33 0.6 27 -2.8 78 78 Calm 30.22 1023 10 16 0.00 0.00
8:52 pm 20:52 Clear 28 -2.2 25 -3.9 88 88 Calm 30.21 1023 10 16 0.00 0.00
9:52 pm 21:52 Clear 29 -1.7 25 -3.9 85 85 SSE 3 6 30.20 1023 10 16 0.00 0.00
10:52 pm 22:52 Clear 27 -2.8 24 -4.4 89 89 SSE 6 9 30.19 1022 10 16 0.00 0.00
11:52 pm 23:52 Clear 25 -3.9 23 -5 92 92 Calm 30.20 1023 10 16 0.00 0.00

Powered by AerisWeather